• Join FlightAware (Why Join?)
  • Login
  • US Flag 
09:52AM EDT


 

Airport Tracker/Info


-or-


 

Live Flight TrackerFlight Track Log ✈ FSR411 ✈ 18-Jun-2013 ✈ KCMI - KDET

Flight Track Log - Related Links

Times and Time Zones

All times are in EDT time to prevent confusion due to time zone crossing. See the FSR411 flight status page for this flight to view local times or setup timezone preferences in your user account.

Time Position Orientation Groundspeed Altitude Reporting Facility
EDT Latitude Longitude Course Direction KTS MPH feet Rate Location/Type
03:21PM 40.0392 -88.1614 75° East 234 269 23,000  Level Chicago Center
03:22PM 40.0733 -88.0814 61° Northeast 246 283 6,800 -6,240 Descending Chicago Center
03:23PM 40.1006 -87.9850 70° East 280 322 10,000 2,880 Climbing Chicago Center
03:24PM 40.1364 -87.8803 66° East 311 358 12,900 2,580 Climbing Chicago Center
03:25PM 40.1792 -87.7522 66° East 379 436 15,400 2,580 Climbing Chicago Center
03:26PM 40.2307 -87.6580 66° East  Level FlightAware Approximate
03:27PM 40.2635 -87.5325 75° East  Level FlightAware Approximate
03:27PM 40.2333 -87.5892 66° East 423 487 18,300  Level Chicago Center
03:28PM 40.2850 -87.4261 67° East 453 521 21,000 2,220 Climbing Chicago Center
03:29PM 40.3361 -87.2719 66° East 457 526 23,000 960 Climbing Chicago Center
03:30PM 40.3883 -87.1097 67° East 478 550 23,000  Level Chicago Center
03:31PM 40.4397 -86.9472 67° East 481 554 23,000  Level Chicago Center
03:32PM 40.4897 -86.7881 68° East 473 544 23,000  Level Chicago Center
03:33PM 40.5411 -86.6258 67° East 478 550 23,000  Level Chicago Center
03:34PM 40.6019 -86.4303 68° East 480 552 23,000  Level Chicago Center
03:35PM 40.6528 -86.2681 68° East 479 551 23,000  Level Chicago Center
03:36PM 40.6994 -86.1197 67° East 481 554 23,000  Level Chicago Center
03:37PM 40.7489 -85.9575 68° East 480 552 23,000  Level Chicago Center
03:38PM 40.8078 -85.7603 68° East 485 558 23,000  Level Chicago Center
03:39PM 40.8581 -85.5978 68° East 484 557 23,000 -300 Level Chicago Center
03:40PM 40.9069 -85.4333 68° East 484 557 22,400 -780 Descending Chicago Center
03:41PM 40.9547 -85.2686 69° East 484 557 21,500 -960 Descending Chicago Center
03:42PM 41.0011 -85.1144 68° East 466 536 20,500 -1,020 Descending Chicago Center
03:43PM 41.0581 -84.9344 67° East 449 517 19,400 -1,020 Descending Chicago Center
03:44PM 41.1031 -84.7872 68° East 439 505 18,400 -900 Descending Chicago Center
03:45PM 41.1489 -84.6428 67° East 429 494 17,600 -720 Descending Chicago Center
03:46PM 41.1925 -84.4975 68° East 426 490 17,000 -600 Descending Chicago Center
03:47PM 41.2358 -84.3564 68° East 419 482 16,400 -1,080 Descending Chicago Center
03:48PM 41.2872 -84.1881 68° East 411 473 14,800 -1,500 Descending Chicago Center
03:49PM 41.3281 -84.0517 68° East 401 461 13,400 -1,320 Descending Chicago Center
03:50PM 41.3694 -83.9222 67° East 389 448 12,100 -1,200 Descending Chicago Center
03:51PM 41.3972 -83.8136 71° East 371 427 11,300 -840 Descending Cleveland Center
03:52PM 41.4342 -83.6881 69° East 364 419 10,700 -600 Descending Cleveland Center
03:53PM 41.4769 -83.5681 65° Northeast 364 419 10,200 -420 Descending Cleveland Center
03:54PM 41.5258 -83.4511 61° Northeast 358 412 9,900 -120 Descending Cleveland Center
03:55PM 41.5792 -83.3203 61° Northeast 362 417 10,000  Climbing Cleveland Center
03:56PM 41.6214 -83.2081 63° Northeast 327 376 9,900 -480 Descending Cleveland Center
03:57PM 41.6567 -83.1206 62° Northeast 315 362 9,100 -1,020 Descending Cleveland Center
03:58PM 41.6942 -83.0275 62° Northeast 296 341 8,100 -600 Descending Cleveland Center
03:59PM 41.7294 -82.9369 62° Northeast 277 319 8,000 -60 Descending Cleveland Center
04:00PM 41.7747 -82.8553 53° Northeast 271 312 8,000 -480 Level Cleveland Center
04:01PM 41.8558 -82.7633 40° Northeast 290 334 7,000 -780 Descending Cleveland Center
04:03PM 41.9389 -82.7772 353° North 264 304 6,200 -840 Descending Cleveland Center
04:03PM 42.0014 -82.7878 353° North 261 300 5,300 -1,140 Descending Cleveland Center
04:05PM 42.0881 -82.8272 341° North 267 307 3,800 -1,080 Descending Cleveland Center
04:05PM 42.1436 -82.8600 336° Northwest 262 302 3,100 -480 Descending Cleveland Center
04:07PM 42.2036 -82.8900 340° North 220 253 3,000 -60 Descending Cleveland Center
04:08PM 42.2636 -82.9147 343° North 194 223 3,000  Level Cleveland Center
04:09PM 42.3153 -82.9333 345° North 194 223 3,100 -240 Climbing Cleveland Center
04:10PM 42.3586 -82.9575 338° Northwest 123 142 2,500 -900 Descending Cleveland Center
04:11PM 42.3872 -82.9867 323° Northwest 118 136 1,200 -1,320 Descending Cleveland Center